Location: Newark
(45.4422°N, 16.2769°E)
Time: 05:04:48
(UTC+00:00)

Vanguard 2 - Pass Details

Date: 16 December 2019
Orbit: 553 x 2938 km, 32.9° (Epoch: 21 January)

Event Time Altitude Azimuth Distance (km) Brightness Sun altitude
Rises 23:18:38 0° 239° (WSW) 5,128 - -67.2°
Reaches altitude 10° 23:21:45 10° 233° (SW) 4,421 - -67.0°
Maximum altitude 23:34:02 48° 165° (SSE) 3,170 - -66.2°
Exits shadow 23:46:18 20° 105° (ESE) 4,937 11.5 -65.2°
Drops below altitude 10° 23:50:23 10° 99° (E) 5,770 12.0 -64.8°
Sets 23:55:07 0° 95° (E) 6,763 12.5 -64.3°
